Weather History for KNID - April, 2014

Change the Weather History Date:

Tuesday, April 1, 2014

  Actual Average Record
Temperature  
Mean Temperature 54 °F -  
Max Temperature 62 °F 69 °F 91 °F (2011)
Min Temperature 45 °F 45 °F 30 °F (1999)
Degree Days  
Heating Degree Days 12    
Growing Degree Days 4 (Base 50)    
Moisture  
Dew Point 22 °F    
Average Humidity 32    
Maximum Humidity 54    
Minimum Humidity 15    
Precipitation  
Precipitation 0.00 in - - ()
Sea Level Pressure  
Sea Level Pressure 29.82 in    
Wind  
Wind Speed 18 mph (WSW)    
Max Wind Speed 30 mph    
Max Gust Speed 41 mph    
Visibility 10 miles    
Events      
Averages and records for this station are not official NWS values.
T = Trace of Precipitation, MM = Missing Value Source: NWS Daily Summary

Daily Weather History Graph

Daily Weather History Graph

Search for Another Location

Airport or City:

Trip Planner

Search our weather history database for the weather conditions in past years. The results will help you decide how hot, cold, wet, or windy it might be!

Date:

Astronomy

Apr. 01, 2014 Rise Set
Actual Time 6:37 AM PDT 7:12 PM PDT
Civil Twilight 6:11 AM PDT 7:38 PM PDT
Nautical Twilight 5:41 AM PDT 8:08 PM PDT
Astronomical Twilight 5:10 AM PDT 8:39 PM PDT
Moon 7:47 AM PDT (4/1) 9:34 PM PDT (4/1)
Length of Visible Light 13h 26m
Length of Day
12h 35m
Waxing Crescent, 5% of the Moon is Illuminated
Apr 1
Waxing Crescent
Apr 7
First Quarter
Apr 15
Full
Apr 22
Last Quarter
Apr 28
New

Hourly Weather History & Observations

Time (PDT) Temp. Windchill Dew Point Humidity Pressure Visibility Wind Dir Wind Speed Gust Speed Precip Events Conditions
12:56 AM 48.9 °F - 30.0 °F 48% 29.83 in 10.0 mi WSW 19.6 mph 25.3 mph N/A   Overcast
1:56 AM 46.9 °F - 30.9 °F 54% 29.83 in 10.0 mi SSW 10.4 mph - N/A   Overcast
6:56 AM 45.0 °F 36.4 °F 26.1 °F 48% 29.83 in 10.0 mi SW 23.0 mph 29.9 mph N/A   Clear
7:56 AM 46.9 °F - 25.0 °F 42% 29.86 in 10.0 mi WSW 23.0 mph 31.1 mph N/A   Clear
8:56 AM 51.1 °F - 21.9 °F 32% 29.87 in 10.0 mi West 15.0 mph - N/A   Clear
9:56 AM 55.0 °F - 18.0 °F 23% 29.88 in 10.0 mi West 13.8 mph - N/A   Clear
10:56 AM 57.0 °F - 15.1 °F 19% 29.87 in 10.0 mi WSW 12.7 mph - N/A   Clear
11:56 AM 59.0 °F - 12.9 °F 16% 29.86 in 10.0 mi West 9.2 mph 15.0 mph N/A   Partly Cloudy
12:56 PM 59.0 °F - 10.9 °F 15% 29.84 in 10.0 mi WSW 11.5 mph - N/A   Partly Cloudy
1:56 PM 62.1 °F - 18.0 °F 18% 29.82 in 10.0 mi WNW 20.7 mph 29.9 mph N/A   Partly Cloudy
2:56 PM 61.0 °F - 19.0 °F 20% 29.81 in 10.0 mi West 23.0 mph 31.1 mph N/A   Partly Cloudy
3:56 PM 59.0 °F - 21.0 °F 23% 29.80 in 10.0 mi WSW 18.4 mph 31.1 mph N/A   Partly Cloudy
4:56 PM 57.9 °F - 21.9 °F 25% 29.77 in 10.0 mi WSW 29.9 mph 41.4 mph N/A   Partly Cloudy
5:56 PM 55.9 °F - 21.9 °F 27% 29.76 in 10.0 mi WSW 28.8 mph 36.8 mph N/A   Partly Cloudy
6:56 PM 53.1 °F - 21.9 °F 30% 29.77 in 10.0 mi WSW 21.9 mph 36.8 mph N/A   Partly Cloudy
7:56 PM 52.0 °F - 24.1 °F 34% 29.78 in 10.0 mi SW 15.0 mph - N/A   Partly Cloudy
8:56 PM 50.0 °F - 25.0 °F 38% 29.80 in 10.0 mi East 4.6 mph - N/A   Scattered Clouds
9:56 PM 48.0 °F - 27.0 °F 44% 29.79 in 10.0 mi South 5.8 mph 23.0 mph N/A   Scattered Clouds
10:56 PM 48.9 °F - 27.0 °F 43% 29.79 in 10.0 mi South 24.2 mph 32.2 mph N/A   Scattered Clouds
11:56 PM 48.9 °F - 27.0 °F 43% 29.80 in 10.0 mi SSW 18.4 mph 25.3 mph N/A   Clear